Regional Weather Roundup
Issued by NWS

Home | Current Version | Previous Version | Text Only | Print | Product List | Glossary Off
Versions: 1 2 3 4 5 6 7 8 9 10 11 12 13 14 15 16 17 18 19 20 21 22 23 24 25 26 27 28 29 30 31 32 33 34 35 36 37 38 39 40 41 42 43 44 45 46 47 48 49 50

000
ASUS43 KLMK 191810
RWRKY
KENTUCKY REGIONAL WEATHER ROUNDUP
NATIONAL WEATHER SERVICE LOUISVILLE KY
100 PM EST THU JAN 19 2017

NOTE "FAIR" INDICATES FEW OR NO CLOUDS BELOW 12,000 FEET
WITH NO SIGNIFICANT WEATHER AND/OR OBSTRUCTIONS TO VISIBILITY.

KYZ001>023-026-027-061>063-070>075-191900-
WESTERN AND SOUTH CENTRAL KENTUCKY

CITY           SKY/WX    TMP DP  RH WIND       PRES   REMARKS
PADUCAH        CLOUDY    53  50  89 SE9       29.84F FOG
HENDERSON      CLOUDY    48  43  81 SE3       29.88F
OWENSBORO      CLOUDY    50  45  83 E6        29.90F
HOPKINSVILLE   LGT RAIN  52  52 100 SE5       29.87F
BOWLING GREEN  CLOUDY    54  51  90 E8        29.92F
GLASGOW        CLOUDY   N/A N/A N/A E7        29.93F
$$

KYZ024-025-028>034-038-045-046-053-191900-
NORTH CENTRAL KENTUCKY

CITY           SKY/WX    TMP DP  RH WIND       PRES   REMARKS
LOUISVILLE/SDF CLOUDY    53  38  56 E7        29.95F
LOUISVILLE/LOU CLOUDY    53  38  56 E6        29.97F
FORT KNOX      CLOUDY    50  41  70 E8        29.92F
$$

KYZ035>037-039>044-047>052-055>060-089>105-191900-
NORTHEAST KENTUCKY

CITY           SKY/WX    TMP DP  RH WIND       PRES   REMARKS
LEXINGTON      CLOUDY    54  36  50 SE10      29.99F
COVINGTON      CLOUDY    47  40  76 SE7       30.00S
FRANKFORT      CLOUDY    54  38  54 SE5       29.98F
$$

KYZ054-064>069-076>088-106>120-191900-
SOUTHEAST KENTUCKY

CITY           SKY/WX    TMP DP  RH WIND       PRES   REMARKS
JACKSON        CLOUDY    50  38  63 CALM      30.01F
LONDON         CLOUDY    51  40  65 CALM      30.00F
SOMERSET       LGT RAIN  46  43  87 CALM      30.01F
MIDDLESBORO    CLOUDY    55  42  61 S3        30.02F
MONTICELLO     LGT RAIN  50  48  93 N9        29.99F FOG
$$




USA.gov is the U.S. government's official web portal to all federal, state and local government web resources and services.